User: anonymous   Login
Location: Caltech
(34.1382°N, 118.1253°W)
Time: 16:04:24
(UTC-08:00)
Language:

Cosmos 676 Rocket - Orbit

View from above orbital plane
View from above orbital plane
View from above satellite
View from above satellite

Ground track
Ground track

The orbit data is extracted from the following two-line orbital elements,

1 07434U 74071B   16036.45783957  .00000150  00000-0  59782-4 0  9992
2 07434  74.0462  48.0214 0019371  81.1087 279.2258 14.36537538165235
Epoch (UTC): 05 February 2016 10:59:17
Eccentricity: 0.0019371
inclination: 74.0462°
perigee height: 756 km
apogee height: 784 km
right ascension of ascending node: 48.0214°
argument of perigee: 81.1087°
revolutions per day: 14.36537538
mean anomaly at epoch: 279.2258°
orbit number at epoch: 16523

The dashed part of the orbit path shows where the satellite is in the earth's shadow,  

DLR